| time (UTC) | temp C | wind direction | speed KPH | gust KPH | rain 1hr cm | rain 24hr cm | rain mn cm | humidity % | barometer mb |
| 20260502161036 | 10 | 45 | 1.6 | 6.4 | 0.18 | 1.24 | 1.24 | 91 | 1013.6 |
| 20260502152016 | 10 | 45 | 3.2 | 6.4 | 0.30 | 1.12 | 1.12 | 91 | 1014.2 |
| 20260502151016 | 10 | 45 | 1.6 | 6.4 | 0.33 | 1.07 | 1.07 | 91 | 1014.3 |
| 20260502123016 | 11 | 23 | 1.6 | 4.8 | 0.05 | 0.05 | 0.05 | 90 | 1015.8 |
| 20260502122016 | 11 | 23 | 1.6 | 4.8 | 0.05 | 0.05 | 0.05 | 89 | 1015.8 |
| 20260502121016 | 11 | 45 | 1.6 | 6.4 | 0.03 | 0.03 | 0.03 | 89 | 1016.0 |
| 20260502115016 | 11 | 23 | 1.6 | 8.0 | 0.00 | 0.00 | 0.00 | 89 | 1016.4 |
| 20260502114016 | 11 | 0 | 1.6 | 6.4 | 0.00 | 0.00 | 0.00 | 88 | 1016.4 |
| 20260502113016 | 12 | 68 | 1.6 | 8.0 | 0.00 | 0.00 | 0.00 | 88 | 1016.6 |
| 20260502112016 | 12 | 23 | 1.6 | 4.8 | 0.00 | 0.00 | 0.00 | 88 | 1016.5 |
| 20260502111016 | 12 | 45 | 1.6 | 4.8 | 0.00 | 0.00 | 0.00 | 87 | 1016.8 |
| 20260502110036 | 12 | 45 | 1.6 | 6.4 | 0.00 | 0.00 | 0.00 | 87 | 1017.0 |
| 20260502105016 | 12 | 45 | 1.6 | 6.4 | 0.00 | 0.00 | 0.00 | 86 | 1017.2 |
| 20260502104016 | 12 | 68 | 1.6 | 4.8 | 0.00 | 0.00 | 0.00 | 86 | 1017.2 |
| 20260502103016 | 12 | 90 | 1.6 | 8.0 | 0.00 | 0.00 | 0.00 | 86 | 1017.4 |
| 20260502102016 | 12 | 113 | 1.6 | 8.0 | 0.00 | 0.00 | 0.00 | 86 | 1017.4 |
| 20260502101016 | 12 | 113 | 1.6 | 8.0 | 0.00 | 0.00 | 0.00 | 86 | 1017.5 |
| 20260502091015 | 12 | 0.0 | 3.2 | 0.00 | 0.00 | 0.00 | 85 | 1017.9 | |
| 20260502071035 | 11 | 0.0 | 0.0 | 0.00 | 0.00 | 0.00 | 92 | 1018.8 | |
| 20260502070016 | 10 | 0.0 | 1.6 | 0.00 | 0.00 | 0.00 | 92 | 1018.7 | |
| 20260502065016 | 9 | 0.0 | 0.0 | 0.00 | 0.00 | 0.00 | 91 | 1018.8 | |
| 20260502064056 | 9 | 0.0 | 4.8 | 0.00 | 0.00 | 0.00 | 91 | 1018.9 | |
| 20260502063015 | 8 | 315 | 1.6 | 3.2 | 0.00 | 0.00 | 0.00 | 91 | 1018.9 |
| 20260502062015 | 9 | 315 | 1.6 | 4.8 | 0.00 | 0.00 | 0.00 | 91 | 1018.8 |
| 20260502061056 | 9 | 0.0 | 0.0 | 0.00 | 0.00 | 0.00 | 91 | 1018.8 | |
| 20260502060015 | 9 | 0.0 | 0.0 | 0.00 | 0.00 | 0.00 | 91 | 1018.7 | |
| 20260502055015 | 9 | 0.0 | 0.0 | 0.00 | 0.00 | 0.00 | 91 | 1018.8 | |
| 20260502054055 | 9 | 0.0 | 0.0 | 0.00 | 0.00 | 0.00 | 91 | 1018.9 | |
| 20260502053017 | 8 | 0.0 | 0.0 | 0.00 | 0.00 | 0.00 | 91 | 1018.9 | |
| 20260502052017 | 8 | 0.0 | 0.0 | 0.00 | 0.00 | 0.00 | 91 | 1019.1 | |
| 20260502051017 | 8 | 0.0 | 0.0 | 0.00 | 0.00 | 0.00 | 91 | 1019.1 | |
| 20260502050017 | 8 | 0.0 | 0.0 | 0.00 | 0.00 | 0.00 | 91 | 1019.3 | |
| 20260502045037 | 8 | 0.0 | 0.0 | 0.00 | 0.00 | 0.00 | 91 | 1019.3 | |
| 20260502044017 | 8 | 315 | 1.6 | 4.8 | 0.00 | 0.00 | 0.00 | 91 | 1019.4 |
| 20260502043037 | 8 | 315 | 1.6 | 3.2 | 0.00 | 0.00 | 0.00 | 91 | 1019.4 |
| 20260502042017 | 8 | 0.0 | 3.2 | 0.00 | 0.00 | 0.00 | 91 | 1019.5 | |
| 20260502041017 | 8 | 0.0 | 0.0 | 0.00 | 0.00 | 0.00 | 91 | 1019.7 | |
| 20260502040017 | 8 | 0.0 | 3.2 | 0.00 | 0.00 | 0.00 | 91 | 1019.6 | |
| 20260502035017 | 8 | 270 | 1.6 | 4.8 | 0.00 | 0.00 | 0.00 | 90 | 1019.7 |
| 20260502034017 | 8 | 0.0 | 3.2 | 0.00 | 0.00 | 0.00 | 90 | 1019.7 | |
| 20260502033017 | 8 | 270 | 1.6 | 4.8 | 0.00 | 0.00 | 0.00 | 90 | 1019.7 |
| 20260502032017 | 8 | 270 | 1.6 | 4.8 | 0.00 | 0.00 | 0.00 | 90 | 1019.6 |
| 20260502031017 | 8 | 0.0 | 0.0 | 0.00 | 0.00 | 0.00 | 90 | 1019.6 | |
| 20260502030017 | 8 | 0.0 | 0.0 | 0.00 | 0.00 | 0.00 | 90 | 1019.7 | |
| 20260502025017 | 9 | 0.0 | 0.0 | 0.00 | 0.00 | 0.00 | 90 | 1019.7 | |
| 20260502024017 | 9 | 0.0 | 0.0 | 0.00 | 0.00 | 0.00 | 90 | 1019.7 | |
| 20260502023017 | 9 | 0.0 | 0.0 | 0.00 | 0.00 | 0.00 | 90 | 1019.9 | |
| 20260502022018 | 9 | 0.0 | 0.0 | 0.00 | 0.00 | 0.00 | 90 | 1020.0 | |
| 20260502021037 | 9 | 0.0 | 0.0 | 0.00 | 0.00 | 0.00 | 90 | 1020.2 | |
| 20260502020017 | 9 | 0.0 | 0.0 | 0.00 | 0.00 | 0.00 | 90 | 1020.4 | |
| 20260502015017 | 9 | 0.0 | 0.0 | 0.00 | 0.00 | 0.00 | 90 | 1020.5 | |
| 20260502014037 | 9 | 0.0 | 0.0 | 0.00 | 0.00 | 0.00 | 90 | 1020.7 | |
| 20260502013017 | 9 | 0.0 | 0.0 | 0.00 | 0.00 | 0.00 | 90 | 1020.9 | |
| 20260502012037 | 9 | 270 | 1.6 | 3.2 | 0.00 | 0.00 | 0.00 | 89 | 1020.9 |
| 20260502011017 | 9 | 0.0 | 3.2 | 0.00 | 0.00 | 0.00 | 89 | 1020.9 | |
| 20260502010017 | 9 | 270 | 1.6 | 3.2 | 0.00 | 0.00 | 0.00 | 89 | 1021.1 |
| 20260502005017 | 9 | 270 | 1.6 | 3.2 | 0.00 | 0.00 | 0.00 | 89 | 1021.2 |
| 20260502004037 | 9 | 0.0 | 0.0 | 0.00 | 0.00 | 0.00 | 89 | 1021.2 | |
| 20260502003017 | 10 | 0.0 | 1.6 | 0.00 | 0.00 | 0.00 | 89 | 1021.2 | |
| 20260502002017 | 10 | 0.0 | 0.0 | 0.00 | 0.00 | 0.00 | 89 | 1021.2 | |
| 20260502001017 | 10 | 0.0 | 0.0 | 0.00 | 0.00 | 0.00 | 89 | 1021.2 | |
| 20260502000037 | 10 | 0.0 | 0.0 | 0.00 | 0.00 | 0.00 | 88 | 1021.3 | |
| 20260501235017 | 10 | 0.0 | 0.0 | 0.00 | 0.00 | 0.00 | 88 | 1021.4 | |
| 20260501234017 | 10 | 0.0 | 0.0 | 0.00 | 0.00 | 0.00 | 88 | 1021.5 | |
| 20260501233017 | 10 | 0.0 | 1.6 | 0.00 | 0.00 | 0.00 | 88 | 1021.5 | |
| 20260501232037 | 10 | 0.0 | 3.2 | 0.00 | 0.00 | 0.00 | 88 | 1021.4 | |
| 20260501231017 | 10 | 0.0 | 1.6 | 0.00 | 0.00 | 0.00 | 88 | 1021.3 | |
| 20260501230017 | 10 | 0.0 | 3.2 | 0.00 | 0.00 | 0.00 | 87 | 1021.5 | |
| 20260501225016 | 11 | 0.0 | 3.2 | 0.00 | 0.00 | 0.00 | 87 | 1021.5 | |
| 20260501224016 | 11 | 0.0 | 3.2 | 0.00 | 0.00 | 0.00 | 87 | 1021.6 | |
| 20260501223037 | 11 | 270 | 3.2 | 4.8 | 0.00 | 0.00 | 0.00 | 87 | 1021.4 |
| 20260501222016 | 11 | 248 | 3.2 | 6.4 | 0.00 | 0.00 | 0.00 | 87 | 1021.6 |
| 20260501221016 | 11 | 270 | 3.2 | 9.7 | 0.00 | 0.00 | 0.00 | 87 | 1021.6 |
| 20260501220016 | 11 | 248 | 3.2 | 6.4 | 0.00 | 0.00 | 0.00 | 87 | 1021.6 |
| 20260501215016 | 11 | 0 | 4.8 | 9.7 | 0.00 | 0.00 | 0.00 | 86 | 1021.7 |
| 20260501214016 | 11 | 0 | 3.2 | 9.7 | 0.00 | 0.00 | 0.00 | 86 | 1021.7 |
| 20260501213016 | 11 | 270 | 3.2 | 9.7 | 0.00 | 0.00 | 0.00 | 86 | 1021.9 |
| 20260501212016 | 11 | 0 | 3.2 | 6.4 | 0.00 | 0.00 | 0.00 | 85 | 1021.8 |
| 20260501211037 | 12 | 270 | 3.2 | 6.4 | 0.00 | 0.00 | 0.00 | 85 | 1021.8 |
| 20260501210016 | 12 | 248 | 3.2 | 12.9 | 0.00 | 0.00 | 0.00 | 85 | 1021.8 |
| 20260501205016 | 12 | 270 | 3.2 | 6.4 | 0.00 | 0.00 | 0.00 | 85 | 1021.8 |
| 20260501204016 | 12 | 270 | 3.2 | 9.7 | 0.00 | 0.00 | 0.00 | 85 | 1021.7 |
| 20260501203017 | 12 | 293 | 3.2 | 6.4 | 0.00 | 0.00 | 0.00 | 85 | 1021.8 |
| 20260501202016 | 12 | 270 | 3.2 | 9.7 | 0.00 | 0.00 | 0.00 | 84 | 1021.7 |
| 20260501201016 | 12 | 0 | 3.2 | 8.0 | 0.00 | 0.00 | 0.00 | 84 | 1021.7 |
| 20260501200016 | 12 | 248 | 3.2 | 6.4 | 0.00 | 0.00 | 0.00 | 84 | 1021.5 |
| 20260501195016 | 12 | 248 | 3.2 | 8.0 | 0.00 | 0.00 | 0.00 | 84 | 1021.4 |
| 20260501194016 | 12 | 270 | 3.2 | 9.7 | 0.00 | 0.00 | 0.00 | 83 | 1021.3 |
| 20260501193016 | 12 | 248 | 3.2 | 11.3 | 0.00 | 0.00 | 0.00 | 83 | 1021.2 |
| 20260501192016 | 12 | 0 | 3.2 | 9.7 | 0.00 | 0.00 | 0.00 | 83 | 1021.2 |
| 20260501191016 | 13 | 270 | 3.2 | 9.7 | 0.00 | 0.00 | 0.00 | 82 | 1021.1 |
| 20260501190016 | 13 | 270 | 3.2 | 8.0 | 0.00 | 0.00 | 0.00 | 82 | 1021.0 |
| 20260501185016 | 13 | 248 | 3.2 | 11.3 | 0.00 | 0.00 | 0.00 | 82 | 1021.0 |
| 20260501184016 | 13 | 270 | 1.6 | 6.4 | 0.00 | 0.00 | 0.00 | 81 | 1020.9 |
| 20260501183016 | 13 | 0 | 3.2 | 9.7 | 0.00 | 0.00 | 0.00 | 81 | 1020.9 |
| 20260501182016 | 13 | 0 | 4.8 | 11.3 | 0.00 | 0.00 | 0.00 | 81 | 1021.0 |
| 20260501181016 | 13 | 248 | 3.2 | 9.7 | 0.00 | 0.00 | 0.00 | 80 | 1021.0 |
| 20260501180016 | 13 | 0 | 4.8 | 12.9 | 0.00 | 0.00 | 0.00 | 79 | 1021.1 |
| 20260501175016 | 14 | 0 | 3.2 | 12.9 | 0.00 | 0.00 | 0.00 | 78 | 1021.0 |
| 20260501174016 | 14 | 270 | 3.2 | 9.7 | 0.00 | 0.00 | 0.00 | 78 | 1021.0 |
| 20260501173016 | 14 | 270 | 4.8 | 9.7 | 0.00 | 0.00 | 0.00 | 77 | 1021.0 |
| 20260501172016 | 14 | 0 | 4.8 | 12.9 | 0.00 | 0.00 | 0.00 | 77 | 1020.9 |
| 20260501171016 | 15 | 0 | 3.2 | 8.0 | 0.00 | 0.00 | 0.00 | 77 | 1021.0 |
| 20260501170016 | 15 | 225 | 6.4 | 14.5 | 0.00 | 0.00 | 0.00 | 77 | 1021.1 |
| 20260501165016 | 15 | 0 | 6.4 | 16.1 | 0.00 | 0.00 | 0.00 | 77 | 1021.1 |
| 20260501164036 | 15 | 225 | 8.0 | 16.1 | 0.00 | 0.00 | 0.00 | 77 | 1021.2 |
| 20260501163016 | 15 | 0 | 9.7 | 20.9 | 0.00 | 0.00 | 0.00 | 75 | 1021.2 |
| 20260501162016 | 16 | 248 | 8.0 | 14.5 | 0.00 | 0.00 | 0.00 | 75 | 1021.0 |